Dewpoint
15 18 17 13 17 17 14 16 16 18 14 13 16 16 15 14 16 18 18 17 16 14 32 38 41 43 44 47 48 49 50 50 50 51 50 49 49 48 48 47 48 49 50 51 53 54 55 55 54 54 55 55 55 56 55 54 54 55 56 56 55 57 57 56 54 55 55 54 55 55 55 55 56 57 58 57 57 57 58 59 58 58 60 61 65 66
24 22 24 20 17 17 15 18 22 18 13 14 15 15 19 16 13 18 20 18 17 13 21 39 42 43 44 45 47 48 48 49 49 49 49 48 47 48 47 47 48 49 52 52 52 54 54 53 53 54 54 58 53 55 55 54 55 54 54 53 55 56 57 56 55 55 55 54 55 55 55 55 55 55 55 55 56 58 59 59 58 58 59 59 60 65
27 19 19 21 21 16 16 17 19 16 14 16 15 18 15 17 21 20 21 19 19 16 17 33 40 42 43 43 44 47 47 48 49 49 48 48 47 46 46 47 48 49 50 50 51 51 53 54 53 53 53 53 53 53 54 54 53 54 53 52 53 55 56 56 57 55 54 54 55 55 55 56 55 56 56 57 58 58 58 58 58 58 58 58 59 60
24 23 25 21 16 11 11 18 15 16 17 16 16 18 17 22 16 18 21 19 18 16 14 23 25 31 42 42 44 46 45 46 47 48 47 47 47 45 46 46 48 48 48 48 49 50 51 52 52 52 51 52 52 52 52 53 52 53 56 52 52 53 54 55 55 56 55 57 56 55 56 56 55 55 58 56 57 57 57 57 57 57 58 58 59 59
22 21 25 18 11 14 16 13 16 19 19 18 17 18 19 22 21 16 17 21 20 17 18 21 24 24 32 39 40 42 43 44 45 46 46 46 46 46 47 47 48 47 48 47 48 49 50 50 51 51 52 51 50 51 51 52 52 54 51 52 51 52 52 54 55 53 55 56 54 55 55 56 56 55 56 56 56 57 58 59 58 58 59 59 59 59
21 18 11 6 9 13 14 15 18 19 25 23 25 17 17 17 17 18 17 19 16 21 17 17 19 21 29 34 38 40 41 43 44 44 43 43 45 46 46 46 47 48 47 47 47 48 49 49 50 50 51 50 50 51 52 52 52 52 50 51 52 52 53 54 53 54 56 54 53 54 54 54 53 54 55 55 56 56 57 57 58 59 59 59 59 59
21 19 7 6 9 15 18 19 18 20 23 18 21 20 15 15 16 17 15 15 13 13 22 21 12 18 30 28 30 35 38 39 43 42 42 42 44 45 46 46 47 47 47 47 47 48 48 49 49 49 50 50 50 51 52 52 52 52 53 52 52 52 54 55 52 54 56 53 53 53 53 54 53 53 54 55 57 57 57 58 58 58 59 60 59 60
23 20 17 15 13 18 21 18 20 20 17 20 25 20 18 16 16 15 14 14 19 20 27 26 22 20 21 24 30 33 32 34 40 41 41 42 43 44 45 46 46 45 45 46 47 47 48 48 48 49 49 50 51 52 52 51 51 51 50 52 51 52 53 53 52 55 54 54 53 53 53 55 54 54 55 56 57 58 59 58 58 58 59 60 60 60
25 22 18 18 20 21 19 19 21 20 19 23 19 18 18 17 15 13 13 13 17 14 17 27 31 20 23 30 35 31 26 33 37 39 40 42 43 43 44 45 45 44 45 45 46 47 47 48 48 48 49 50 51 52 51 51 51 52 51 52 52 49 50 51 52 53 52 57 53 53 53 53 55 56 57 57 57 57 58 57 58 58 58 59 60 60
21 20 17 17 18 18 20 21 20 16 18 17 19 20 22 25 22 13 15 15 25 13 13 20 29 15 21 29 27 29 28 29 36 39 39 41 42 43 43 43 43 43 44 45 45 46 47 47 48 49 49 50 51 52 54 54 51 51 50 51 51 49 50 50 51 50 52 54 56 53 53 53 54 55 56 56 56 56 57 56 57 58 58 58 59 60
20 40 27 17 17 19 20 18 21 18 16 18 12 13 21 25 26 32 27 29 23 14 17 26 31 23 18 25 25 25 27 29 33 38 40 41 42 42 43 43 43 43 44 44 45 46 47 48 48 49 49 49 51 51 51 50 50 50 49 49 48 48 50 50 49 50 52 53 54 53 53 53 53 55 55 55 55 56 56 56 57 57 57 58 59 59
19 19 15 13 28 20 18 16 19 17 16 14 12 15 19 23 25 26 27 26 15 15 24 29 29 25 18 23 28 30 33 29 32 35 38 40 41 41 42 42 42 43 44 44 45 46 47 48 48 48 48 49 50 50 49 50 50 50 48 48 48 48 48 49 50 50 52 53 53 54 53 53 54 55 55 55 55 55 56 56 57 57 57 58 59 59
23 21 20 16 28 18 19 18 19 26 22 14 18 25 18 16 21 16 21 14 13 15 21 30 32 24 23 23 27 29 30 29 33 35 38 40 40 41 41 42 42 43 43 44 45 46 48 48 48 48 48 49 49 49 49 50 49 50 49 48 46 46 48 48 49 49 51 52 53 53 53 53 55 55 55 55 55 55 56 57 57 56 56 58 58 58
24 26 17 18 18 24 18 18 18 20 21 20 17 25 21 16 15 13 17 19 21 25 29 30 30 22 24 25 29 27 30 31 35 36 39 40 40 40 41 42 42 43 43 44 45 46 47 47 48 48 48 49 49 48 49 49 51 49 49 48 47 47 48 48 48 49 51 51 53 53 53 54 54 54 56 55 55 56 56 56 57 56 56 57 57 58
21 20 23 19 21 20 17 17 21 21 22 20 17 22 21 21 18 14 17 14 16 21 26 32 22 21 19 26 33 29 28 31 35 35 37 40 40 40 41 41 42 42 43 44 45 45 46 47 47 48 48 48 48 49 49 49 49 49 48 47 47 46 47 47 47 50 50 51 53 54 53 54 55 56 56 55 57 56 56 56 57 57 57 57 57 57
25 25 28 25 18 15 14 16 22 18 20 25 26 25 21 20 27 16 23 22 21 19 17 22 20 26 22 28 38 33 28 30 38 38 39 40 41 40 41 42 42 43 44 44 44 45 45 46 47 48 48 48 48 49 48 48 48 48 48 47 47 46 46 46 50 50 50 51 53 52 52 52 55 57 55 55 55 56 56 56 57 57 57 57 58 58
25 22 27 23 22 17 19 21 21 18 16 22 19 22 21 26 27 22 22 27 25 23 17 23 22 26 30 29 32 33 27 32 38 39 39 40 41 40 40 41 42 43 44 44 45 45 45 46 47 47 47 47 48 48 47 47 48 49 47 47 45 46 47 46 49 49 50 51 50 51 51 52 52 53 54 54 54 55 56 56 56 57 58 58 58 58
20 19 27 22 25 24 20 20 20 19 22 22 18 20 27 29 29 23 15 20 18 13 18 23 21 23 22 20 35 29 27 31 38 38 39 40 41 40 41 41 42 43 43 44 45 45 45 46 46 47 47 47 47 47 47 47 48 48 47 46 44 47 43 44 47 50 50 50 50 51 52 52 52 53 54 54 55 55 56 56 56 57 57 57 56 55
26 17 23 26 24 23 23 23 23 23 22 19 21 28 20 17 21 29 23 14 12 13 14 21 22 21 23 24 29 25 28 31 37 40 39 39 40 40 41 41 42 43 44 44 44 44 45 45 46 46 46 47 47 49 47 47 48 48 47 46 45 44 43 47 51 50 50 51 51 51 52 52 53 53 54 54 55 55 56 56 56 55 55 54 53 52
31 19 25 28 22 25 24 19 17 24 26 26 21 21 31 24 25 17 19 22 22 13 13 17 20 16 24 27 29 27 29 31 38 40 38 38 39 41 41 41 41 42 43 43 44 44 45 45 45 46 46 46 46 46 47 47 47 47 46 48 47 47 45 47 49 50 49 50 50 51 51 52 53 53 54 54 54 54 55 56 56 55 53 52 51 49
24 28 17 26 26 21 20 24 23 23 23 22 23 26 31 32 31 25 27 21 19 16 15 16 15 23 27 30 28 27 30 31 38 39 39 39 39 40 41 41 41 42 43 43 43 44 45 45 44 45 46 45 45 46 45 45 46 44 44 46 48 44 44 46 48 49 49 50 50 51 50 51 52 52 53 54 54 54 55 56 56 54 52 48 46 44
26 26 18 27 24 24 23 27 22 26 29 28 26 27 28 27 23 20 22 32 28 24 20 18 19 25 29 34 31 30 31 32 37 38 39 40 40 40 41 41 41 42 42 42 42 43 44 44 44 43 44 44 44 43 41 42 41 41 42 44 45 45 44 45 47 49 49 50 50 49 50 50 51 52 53 53 53 54 54 55 54 52 48 45 43 42
31 31 25 21 25 25 24 24 23 19 33 35 30 30 36 34 28 25 20 25 26 27 28 25 21 24 34 34 36 35 35 35 35 37 38 40 40 40 40 41 40 42 42 42 43 43 43 43 43 41 43 43 41 40 40 40 40 40 42 43 44 44 45 46 48 50 50 49 49 49 50 51 52 52 52 52 52 52 53 54 54 52 47 44 42 42
48 28 25 28 28 27 28 29 30 35 37 30 30 35 31 27 32 28 26 28 23 26 22 22 20 25 33 39 37 36 35 35 34 36 37 39 40 40 39 40 40 41 42 42 43 43 44 43 43 41 42 40 39 40 40 40 40 41 42 43 44 45 46 46 48 49 49 49 48 49 50 50 52 52 52 51 51 51 52 53 54 53 48 45 43 42
24 30 26 24 24 26 27 30 29 31 31 30 28 34 34 33 33 32 33 30 21 26 26 22 17 20 30 39 37 36 33 32 32 33 36 37 40 40 39 40 41 41 42 41 42 42 43 43 43 42 42 40 40 40 41 41 41 41 42 44 44 44 45 44 47 48 49 49 48 48 48 49 50 51 51 51 50 50 50 51 53 53 48 46 44 43
29 28 29 22 19 15 13 17 20 25 26 29 36 33 33 32 32 29 23 25 21 28 28 22 19 25 29 34 34 34 32 32 33 36 38 37 38 40 41 42 42 42 42 42 42 42 42 42 42 42 41 40 41 40 40 41 41 41 42 44 44 44 45 45 47 47 48 49 48 47 47 47 48 49 50 50 50 50 50 50 50 51 49 46 44 42
29 33 31 28 25 24 23 27 32 33 32 26 30 31 27 30 35 32 29 25 25 26 24 27 27 29 29 29 32 31 33 30 31 32 33 39 40 40 41 42 42 42 42 42 42 42 42 41 40 40 40 41 40 40 40 40 40 41 43 44 44 43 44 44 46 45 47 48 47 47 47 47 47 49 49 49 49 50 50 49 49 49 48 47 44 42
30 24 29 32 32 30 31 32 34 34 30 31 31 30 29 30 32 29 23 26 30 24 26 30 32 27 29 33 34 32 33 32 33 32 30 37 40 40 41 42 44 41 41 42 42 41 41 39 38 39 40 40 40 39 39 40 40 42 43 42 43 44 44 46 44 44 46 47 47 47 47 48 48 49 49 49 50 49 49 49 48 48 48 46 42 41
29 22 29 29 29 34 36 35 34 33 31 31 31 31 30 31 31 27 27 30 30 25 25 30 32 28 29 34 34 33 32 32 33 34 32 35 40 40 41 41 41 40 41 41 41 41 40 37 37 37 38 39 38 37 37 38 39 42 43 43 44 45 43 45 44 45 46 46 45 46 47 48 50 47 47 48 48 48 48 48 48 48 48 46 43 42
31 27 32 30 30 32 33 33 33 33 32 31 31 30 30 32 31 31 30 30 32 28 29 29 30 29 30 28 31 33 35 34 34 34 36 39 40 41 41 40 40 40 40 40 40 40 39 37 37 38 38 37 35 35 36 37 39 41 41 42 42 42 42 43 44 45 46 44 43 45 46 47 47 46 46 46 47 47 48 48 48 47 45 44 42 41
31 28 35 32 27 30 33 34 34 34 33 31 31 31 31 30 30 32 32 31 33 31 31 31 30 29 32 33 32 33 35 37 38 37 36 38 40 41 40 39 39 39 39 40 40 39 40 39 39 39 38 37 36 36 36 38 39 40 40 40 41 42 44 44 44 44 44 43 44 46 46 46 46 46 46 46 46 47 47 47 47 46 46 46 44 42
33 28 34 30 26 27 31 34 34 34 32 30 29 30 30 29 28 29 27 30 28 27 28 29 27 28 31 34 34 34 34 33 32 34 37 38 39 40 39 39 38 39 40 39 39 39 40 41 41 40 39 39 38 37 37 38 39 39 40 41 41 42 44 43 44 44 44 45 44 46 46 46 46 46 46 46 46 46 47 47 46 45 45 45 45 45
32 31 27 26 27 23 30 34 32 30 27 25 27 29 30 31 32 32 34 37 33 31 26 24 26 28 29 33 31 29 30 32 36 36 37 37 38 38 38 38 38 39 40 39 39 40 40 41 42 42 41 41 38 37 37 38 38 39 40 41 42 43 42 43 44 44 44 45 45 45 46 45 46 46 45 45 45 46 46 46 46 45 44 44 45 44
35 33 28 31 26 24 30 31 29 25 18 23 30 33 32 30 30 29 29 32 35 33 31 31 30 32 33 32 32 30 32 34 36 36 37 36 37 37 37 38 37 38 39 39 39 40 41 43 43 43 42 39 36 37 38 40 39 40 41 41 42 41 42 42 44 44 44 44 44 45 45 45 44 44 44 44 44 45 45 45 46 45 45 44 44 43
33 31 28 29 26 26 27 28 24 16 21 28 33 34 34 33 33 33 32 36 36 36 35 32 31 32 33 33 33 33 35 36 36 35 38 37 36 36 37 38 38 37 38 39 39 40 42 43 44 44 42 38 37 37 39 40 40 41 41 40 40 41 42 42 42 43 43 43 44 44 44 44 44 43 43 43 44 44 44 45 45 45 45 43 42 42
30 29 27 26 25 24 24 21 17 17 25 32 32 33 36 37 36 34 32 34 38 37 35 32 31 31 32 31 32 34 35 35 37 38 38 39 39 37 37 38 37 38 37 38 39 40 43 44 44 44 41 41 39 39 39 40 40 41 40 40 40 42 42 41 41 42 43 43 43 43 44 44 43 43 43 44 43 43 43 43 44 45 44 43 42 42
34 31 28 27 27 22 22 22 25 29 28 28 27 29 33 30 32 29 26 30 35 35 34 33 33 33 35 34 34 34 37 37 35 34 39 41 42 40 38 37 38 39 39 38 40 42 44 44 45 44 42 40 39 39 40 40 40 40 40 39 40 42 41 41 41 42 43 43 43 43 43 43 43 43 43 43 43 42 42 42 43 44 44 43 42 41
33 29 31 27 26 26 23 24 23 21 20 25 30 34 39 41 39 36 28 27 33 34 36 36 35 34 35 36 37 37 38 33 31 33 37 38 43 43 44 43 45 43 41 41 42 43 44 44 44 43 39 38 39 39 40 39 40 40 39 39 40 40 40 39 40 42 42 42 44 43 43 43 43 43 43 42 42 41 41 41 42 44 45 42 42 41
34 33 32 29 27 26 24 23 21 20 23 28 30 33 38 40 39 37 30 27 31 34 37 36 36 37 36 35 34 36 34 31 31 35 38 40 40 42 42 43 43 42 42 42 43 43 43 43 41 40 38 37 38 38 39 39 39 40 39 39 39 39 38 39 40 41 42 43 43 43 43 42 42 42 42 42 41 41 41 41 42 43 43 43 42 42
33 31 30 27 26 28 27 25 25 22 25 29 33 35 37 39 38 30 24 23 31 36 38 36 35 36 37 39 37 34 32 30 32 34 38 39 40 41 42 43 43 44 44 43 43 43 42 42 40 36 35 35 36 37 37 38 39 40 39 39 39 38 38 39 41 41 42 42 43 43 43 42 43 42 41 41 41 41 41 42 41 40 41 42 42 42
30 30 30 29 29 29 28 26 22 25 30 34 33 34 34 40 31 23 23 29 34 37 38 36 36 38 37 36 36 33 35 35 36 38 40 41 41 42 43 44 44 44 43 43 43 44 41 39 37 35 34 34 36 36 37 38 39 40 40 38 38 38 39 40 41 42 42 42 43 43 43 43 41 41 40 40 40 41 42 40 40 39 39 40 40 40
30 31 30 29 28 28 29 28 28 27 31 34 35 36 38 33 26 28 32 35 37 37 37 38 36 38 38 35 36 36 36 39 42 42 39 40 41 42 43 44 44 44 44 44 44 42 40 39 38 36 36 37 36 36 37 38 39 39 39 38 37 38 39 40 41 41 42 42 42 43 43 42 42 43 42 42 42 40 39 39 41 40 41 39 38 37
31 29 30 30 29 27 26 24 24 23 29 36 36 33 35 29 30 32 36 38 39 38 37 38 39 39 39 37 40 39 39 41 41 40 38 42 42 42 43 43 44 43 43 42 42 42 41 39 38 37 37 37 35 36 37 38 39 38 39 37 37 39 39 40 40 41 42 42 42 43 42 42 43 43 44 43 42 40 39 40 39 39 40 40 39 38
34 28 27 29 31 29 27 25 27 30 31 38 33 27 31 33 35 36 37 34 38 39 36 36 38 39 39 38 38 38 40 39 39 42 41 42 41 42 43 43 44 44 43 42 42 42 41 40 39 38 38 36 36 36 37 39 39 38 38 37 38 39 40 40 40 41 41 42 42 42 42 43 43 43 42 42 41 40 39 39 38 37 38 38 36 34
33 32 31 28 32 29 29 30 31 33 32 35 37 36 35 35 39 41 37 35 36 37 39 36 36 39 40 38 39 38 38 41 39 40 39 40 41 42 43 43 43 43 43 43 42 43 41 40 39 38 38 36 36 36 37 38 39 39 38 39 40 39 39 39 40 40 41 41 41 41 42 42 42 42 41 42 41 40 38 35 34 33 33 33 31 31
34 34 34 30 30 34 34 33 36 35 36 35 38 38 37 37 39 41 39 38 39 38 40 36 38 39 41 39 36 39 38 39 40 41 43 42 40 41 43 43 43 43 43 43 43 43 42 41 39 38 38 37 35 37 38 38 40 39 38 40 40 39 38 39 40 39 40 40 40 41 41 41 40 40 40 40 41 39 35 34 34 33 32 31 31 30
33 34 33 30 33 29 29 33 33 33 35 36 35 36 37 38 37 39 40 39 38 39 40 40 38 39 39 40 37 36 38 40 40 42 44 43 42 40 41 43 43 43 43 43 43 43 42 41 39 38 38 37 36 36 38 37 39 40 39 42 39 38 38 39 39 40 39 39 39 39 40 39 39 39 39 39 39 39 37 34 33 34 34 31 29 29
31 37 34 35 33 29 30 33 34 36 36 36 36 36 35 36 36 39 42 41 40 41 41 40 41 41 41 39 39 38 38 41 40 40 42 43 42 43 42 43 43 43 43 43 43 42 41 41 40 39 38 38 37 36 37 38 38 40 40 41 40 38 38 39 39 38 38 37 38 39 40 39 40 39 37 37 35 33 32 32 32 31 31 30 29 28
32 36 32 34 32 32 32 32 35 35 34 34 35 37 37 36 36 37 39 40 42 41 42 42 42 40 41 40 41 40 39 39 40 39 39 41 42 42 43 43 43 43 43 43 43 42 40 40 40 40 39 39 38 36 37 38 39 39 40 41 40 38 39 39 39 38 38 38 38 39 39 38 39 37 36 36 34 33 30 30 30 30 31 30 31 28
36 33 34 31 30 30 29 30 31 28 29 30 34 38 39 39 39 38 40 40 40 38 39 38 38 41 41 40 39 39 38 39 41 41 40 41 42 42 42 44 43 43 43 43 43 41 40 40 39 40 39 39 38 37 37 38 39 39 41 40 39 38 38 39 38 38 38 38 38 38 38 37 37 37 36 34 32 32 30 32 35 32 27 30 34 34
31 32 31 30 29 29 31 31 32 31 31 31 31 34 38 38 39 38 38 38 38 39 39 39 38 39 40 41 42 41 40 40 40 42 42 42 42 42 42 43 43 43 43 43 42 41 40 40 40 40 39 39 39 37 37 37 39 39 41 40 39 38 38 39 38 38 39 39 38 38 39 36 35 35 34 33 33 31 28 25 27 32 33 34 33 33